Regional Weather Roundup
Issued by NWS

Home | Current Version | Previous Version | Graphics & Text | Print | Product List | Glossary On
Versions: 1 2 3 4 5 6 7 8 9 10 11 12 13 14 15 16 17 18 19 20 21 22 23 24 25 26 27 28 29 30 31 32 33 34 35 36 37 38 39 40 41 42 43 44 45 46 47 48 49 50
000
ASUS43 KIND 290909
RWRIN

WEATHER ROUNDUP FOR INDIANA
NATIONAL WEATHER SERVICE INDIANAPOLIS IN
500 AM EDT FRI JUL 29 2016

NOTE: "FAIR" INDICATES FEW OR NO CLOUDS BELOW 12,000 FEET WITH NO
SIGNIFICANT WEATHER AND/OR OBSTRUCTIONS TO VISIBILITY.

* - STATION DOES NOT REPORT WEATHER SUCH AS PRECIPITATION OR FOG.

+ - STATION NOT QUALITY CONTROLLED BY THE NATIONAL WEATHER SERVICE.
    USE DATA WITH CAUTION...ESPECIALLY DEWPOINT AND RELATIVE
    HUMIDITY OBSERVATIONS.

INZ001>003-010>013-019-020-291000-
NORTHWEST INDIANA

CITY           SKY/WX    TMP DP  RH WIND       PRES   REMARKS
GARY /AIRPORT/ PTCLDY    69  69 100 CALM      29.91S
KNOX *+        CLOUDY    63  61  94 N3        29.90S VSB 1/4
LA PORTE +     CLOUDY   N/A N/A N/A CALM      29.91F
MICHIGAN CITY+ CLEAR     63  63 100 CALM      29.92S FOG
MONTICELLO +   CLEAR     67  63  87 CALM      29.89F
RENSSELAER +   CLEAR     64  64 100 CALM      29.90S FOG
VALPARAISO     MOCLDY    68  66  93 N3        29.91S

$$

LMZ046-743>745-291000-
SOUTHERN LAKE MICHIGAN

STATION/POSITION TIME  TEMP    WIND        PRES    WAVE
                       AIR SEA DIR/SP/G            HT
                 (UTC) (F)     (DEG/KT/KT) (MB)    (FT)
BURNS HARBOR     0802   74      50/  9/ 10 1013.2S
MICHIGAN CITY    0800   73      20/  8/  8   N/A
5NW MICH CITY    0900   74 77   60/  6/  8   N/A     2

$$

INZ004-005-014>016-021>024-291000-
NORTH CENTRAL INDIANA

CITY           SKY/WX    TMP DP  RH WIND       PRES   REMARKS
GOSHEN         CLEAR     69  65  86 CALM      29.91S FOG
LOGANSPORT +   CLEAR     64  64 100 CALM      29.90F FOG
PERU/GRISSOM   CLEAR     66  66 100 E2        29.89S
ROCHESTER +    CLEAR     68  68 100 CALM      29.90F
SOUTH BEND     CLEAR     66  65  96 N3        29.91F
WARSAW +       CLEAR     66  66 100 CALM      29.90F FOG

$$

INZ006>009-017-018-025>027-291000-
NORTHEAST INDIANA

CITY           SKY/WX    TMP DP  RH WIND       PRES   REMARKS
ANGOLA *+        N/A     70  61  73 E5        29.93S
AUBURN +       CLEAR     68  64  88 E3        29.91F
FORT WAYNE     PTCLDY    70  68  93 E6        29.91S
HUNTINGTON +   CLEAR     67  65  96 CALM      29.90F

$$

INZ028-029-035-036-043>045-051>053-291000-
WEST CENTRAL INDIANA

CITY           SKY/WX    TMP DP  RH WIND       PRES   REMARKS
CRAWFORDSVL +  CLOUDY    65  65 100 CALM      29.91S FOG
GREENCASTLE +  FOG       66  66 100 CALM      29.91S VSB 1
LAFAYETTE      FOG       68  68 100 CALM      29.89S VSB 1/4
TERRE HAUTE    CLEAR     70  67  90 CALM      29.90R FOG

$$

INZ030>032-037>040-046>048-054>057-064-065-291000-
CENTRAL INDIANA

CITY           SKY/WX    TMP DP  RH WIND       PRES   REMARKS
INDIANAPOLIS   PTCLDY    70  67  90 W3        29.91S
-EAGLE CREEK   CLEAR     72  68  87 CALM      29.90S
KOKOMO *+      CLEAR     64  61  88 SW3       29.91S
MARION +       CLEAR     63  63 100 CALM      29.91F FOG
MT COMFORT *+  CLEAR     64  64 100 CALM      29.92S
SHELBYVILLE    PTCLDY    68  65  90 SE5       29.90F FOG
ZIONSVILLE +   CLEAR     65  65  99 CALM      29.92S FOG

$$

INZ033-034-041-042-049-050-058-059-291000-
EAST CENTRAL INDIANA

CITY           SKY/WX    TMP DP  RH WIND       PRES   REMARKS
MUNCIE         CLEAR     71  66  84 CALM      29.91S

$$

INZ060-061-067>069-081>083-085>088-291000-
SOUTHWEST INDIANA

CITY           SKY/WX    TMP DP  RH WIND       PRES   REMARKS
EVANSVILLE     CLOUDY    71  70  96 CALM      29.91R
HUNTINGBURG *+ PTCLDY    70  64  83 CALM      29.92R
WASHINGTON +   PTCLDY    68  68 100 MISG      29.90S FOG

$$

INZ062-063-066-070>080-084-089>092-291000-
SOUTH CENTRAL AND SOUTHEAST INDIANA

CITY           SKY/WX    TMP DP  RH WIND       PRES   REMARKS
BLOOMINGTON    CLEAR     69  66  90 CALM      29.91S
MADISON *+     CLEAR     68  66  94 CALM      29.93F
NORTH VERNON + FOG      N/A N/A N/A CALM      29.92S VSB 1/4
SEYMOUR +      FOG       70  70 100 CALM      29.91S VSB 1/4

$$




USA.gov is the U.S. government's official web portal to all federal, state and local government web resources and services.